Terminal Aerodrome Forecast
Issued by NWS Dodge City, KS

Home | Current Version | Previous Version | Graphics & Text | Print | Product List | Glossary Off
Versions: 1 2 3 4 5 6 7 8 9 10 11 12 13 14 15 16 17 18 19 20 21 22 23 24 25 26 27 28 29 30 31 32 33 34 35 36 37 38 39 40 41 42 43 44 45 46 47 48 49 50

000
FTUS43 KDDC 241955 AAB
TAFDDC
TAF AMD
KDDC 241955Z 2420/2518 12019G24KT P6SM SCT025 BKN035 BKN045
     FM242100 15016G24KT P6SM VCTS SCT150CB
     FM250100 17019G27KT P6SM BKN200=

USA.gov is the U.S. government's official web portal to all federal, state and local government web resources and services.